EW9733 Weather Reports


time (UTC)temp
F
wind
direction
speed
knots
gust
knots
rain 1hr
in
rain 24hr
in
rain mn
in
humidity
%
barometer
mb
20260507193025 65 82 0.9 8.7 0.00 0.36 0.30 34 1003.9
20260507191524 65 237 2.6 8.7 0.00 0.36 0.30 38 1004.1
20260507190036 65 269 0.9 7.0 0.00 0.36 0.30 41 1004.2
20260507184527 65 242 0.9 5.2 0.00 0.36 0.30 36 1004.3
20260507183019 65 355 1.7 7.0 0.00 0.36 0.30 40 1004.5
20260507181518 65 19 1.7 6.1 0.00 0.36 0.30 42 1004.7
20260507180116 65 221 0.9 7.8 0.00 0.36 0.30 41 1004.8
20260507174515 64 204 0.9 6.1 0.00 0.36 0.30 43 1004.7
20260507173033 64 338 2.6 7.8 0.00 0.36 0.30 45 1004.8
20260507171511 65 348 1.7 5.2 0.00 0.36 0.30 52 1004.9
20260507170016 63 279 0.0 4.3 0.00 0.36 0.30 49 1005.0
20260507164519 63 214 1.7 4.3 0.00 0.36 0.30 56 1005.1
20260507163005 61 209 0.0 3.5 0.00 0.36 0.30 57 1005.3
20260507161505 61 12 0.9 6.1 0.00 0.36 0.30 57 1005.6
20260507160004 60 10 0.0 5.2 0.00 0.36 0.30 56 1005.8
20260507154503 60 226 0.9 7.8 0.00 0.36 0.30 57 1006.0
20260507153001 60 275 0.9 3.5 0.00 0.36 0.30 58 1006.0
20260507151501 60 252 0.9 5.2 0.00 0.36 0.30 60 1006.1
20260507150059 59 56 0.9 4.3 0.00 0.36 0.30 62 1006.2
20260507144554 59 321 0.0 6.1 0.00 0.36 0.30 68 1006.3
20260507143050 58 248 0.9 7.0 0.00 0.36 0.30 65 1006.5
20260507141548 57 255 0.9 5.2 0.00 0.36 0.30 65 1006.7
20260507140044 57 292 0.9 3.5 0.00 0.36 0.30 71 1006.6
20260507134538 56 360 0.0 3.5 0.00 0.36 0.30 78 1006.8
20260507133034 54 323 0.9 3.5 0.00 0.36 0.30 88 1006.8
20260507131531 53 21 1.7 5.2 0.00 0.36 0.30 92 1006.9
20260507130035 52 333 0.9 3.5 0.00 0.36 0.30 93 1006.9
20260507124535 51 244 0.0 2.6 0.00 0.36 0.30 93 1006.9
20260507123024 50 199 0.0 1.7 0.00 0.36 0.30 93 1007.1
20260507121523 50 261 0.0 1.7 0.04 0.36 0.30 93 1006.8
20260507120019 49 261 0.0 1.7 0.07 0.36 0.30 92 1006.8
20260507114516 49 259 0.0 0.0 0.08 0.36 0.30 92 1006.7
20260507113034 49 259 0.0 0.0 0.08 0.36 0.30 92 1006.5
20260507111513 49 259 0.0 0.9 0.04 0.32 0.26 92 1006.7
20260507110015 49 259 0.0 1.7 0.03 0.28 0.23 92 1006.6
20260507104511 50 264 0.0 1.7 0.02 0.28 0.22 92 1006.6
20260507103010 50 264 0.0 1.7 0.03 0.28 0.22 92 1006.6
20260507101513 50 252 0.0 0.9 0.03 0.28 0.22 92 1006.6
20260507100005 51 252 0.0 2.6 0.01 0.26 0.20 92 1006.4
20260507094502 51 286 0.0 2.6 0.03 0.26 0.20 91 1006.1
20260507093059 51 280 0.0 4.3 0.03 0.25 0.19 91 1006.2
20260507091632 52 336 0.0 7.8 0.06 0.25 0.19 91 1005.9
20260507090054 53 292 0.9 2.6 0.10 0.25 0.19 91 1005.7
20260507084603 53 309 0.0 2.6 0.16 0.23 0.17 91 1005.7
20260507083049 54 318 0.0 2.6 0.16 0.22 0.16 91 1005.3
20260507081553 55 277 0.0 1.7 0.13 0.19 0.13 91 1005.7
20260507080046 55 275 0.0 1.7 0.09 0.15 0.09 90 1005.5
20260507074548 55 337 0.0 6.1 0.01 0.07 0.01 90 1005.6
20260507073040 56 348 0.0 2.6 0.00 0.06 0.00 91 1004.6
20260507071539 56 262 0.0 3.5 0.00 0.06 0.00 92 1004.5
20260507070037 56 268 0.0 2.6 0.00 0.06 0.00 92 1004.6
20260507064537 57 264 0.0 0.9 0.00 0.06 0.00 93 1004.6
20260507063038 58 264 0.0 2.6 0.00 0.06 0.00 93 1004.6
20260507061536 58 264 0.0 0.9 0.00 0.06 0.00 93 1004.7
20260507060037 58 223 0.0 1.7 0.00 0.06 0.00 93 1005.1
20260507054530 58 220 0.0 1.7 0.00 0.06 0.00 93 1004.9
20260507053029 58 221 0.0 1.7 0.00 0.06 0.00 93 1005.0
20260507051528 57 242 0.9 2.6 0.00 0.06 0.00 93 1005.0
20260507050029 57 190 0.0 4.3 0.00 0.06 0.00 93 1005.4
20260507044525 57 238 0.0 2.6 0.00 0.06 0.00 93 1005.2
20260507043027 57 215 0.0 3.5 0.00 0.06 0.00 93 1004.9
20260507041522 57 267 0.0 3.5 0.00 0.06 0.00 93 1005.1
20260507040019 57 227 0.0 4.3 0.00 0.06 0.00 93 1005.2
20260507034523 57 175 0.0 4.3 0.00 0.06 0.06 93 1005.6
20260507033018 57 178 1.7 5.2 0.00 0.06 0.06 93 1005.3
20260507031519 57 182 0.9 6.1 0.00 0.06 0.06 93 1005.0
20260507030016 57 186 2.6 6.1 0.00 0.06 0.06 93 1005.0
20260507024519 57 211 0.9 3.5 0.00 0.06 0.06 93 1005.0
20260507023015 57 179 1.7 7.0 0.00 0.06 0.06 93 1004.7
20260507021514 57 196 0.9 5.2 0.00 0.06 0.06 93 1004.9
20260507020018 57 198 0.9 8.7 0.00 0.06 0.06 93 1005.0
20260507014511 57 146 2.6 7.0 0.00 0.06 0.06 93 1005.3
20260507013009 57 188 2.6 7.8 0.00 0.06 0.06 93 1005.4
20260507011512 57 240 0.9 7.8 0.00 0.06 0.06 92 1005.6
20260507010010 57 185 1.7 11.3 0.00 0.06 0.06 92 1005.4
20260507004509 57 219 4.3 7.0 0.01 0.06 0.06 92 1005.5
20260507003006 57 164 1.7 9.6 0.03 0.06 0.06 92 1005.6
20260507001514 57 178 2.6 9.6 0.03 0.06 0.06 92 1005.6
20260507000008 57 156 1.7 17.4 0.03 0.06 0.06 92 1005.5
20260506234502 57 203 1.7 8.7 0.02 0.05 0.05 91 1005.3
20260506233102 57 215 5.2 14.8 0.01 0.03 0.03 91 1005.3
20260506231606 57 186 1.7 7.8 0.02 0.03 0.03 91 1005.6
20260506230112 58 164 0.9 7.8 0.02 0.03 0.03 90 1005.6
20260506224555 58 207 2.6 10.4 0.02 0.03 0.03 90 1005.4
20260506223052 58 191 4.3 13.0 0.01 0.02 0.02 89 1005.8
20260506221604 59 239 3.5 9.6 0.00 0.01 0.01 88 1005.9
20260506220050 59 146 3.5 14.8 0.00 0.01 0.01 88 1006.1
20260506214554 59 204 2.6 14.8 0.00 0.01 0.01 88 1006.0
20260506213048 59 192 3.5 10.4 0.00 0.01 0.01 87 1006.0
20260506211546 59 140 3.5 13.9 0.00 0.01 0.01 87 1006.2
20260506210054 60 217 4.3 12.2 0.01 0.01 0.01 86 1006.3
20260506204547 60 144 2.6 15.6 0.01 0.01 0.01 86 1006.4
20260506203042 60 176 3.5 7.8 0.01 0.01 0.01 85 1006.4
20260506201541 61 197 0.9 12.2 0.01 0.01 0.01 84 1006.5
20260506200040 62 202 2.6 7.0 0.00 0.00 0.00 81 1006.5
20260506194540 62 140 3.5 7.0 0.00 0.00 0.00 79 1006.8